Staunton, VA

7:40 AM EDT on March 28, 2017 (GMT -0400)
Shenandoah Valley Regional

Weather History for KSHD - February, 2014

Change the Weather History Date:

Friday, February 28, 2014

  Actual Average Record
Temperature  
Mean Temperature 21 °F -  
Max Temperature 32 °F 50 °F 72 °F (2011)
Min Temperature 10 °F 29 °F 8 °F (2015)
Degree Days  
Heating Degree Days 44    
Moisture  
Dew Point 3 °F    
Average Humidity 48    
Maximum Humidity 67    
Minimum Humidity 30    
Precipitation  
Precipitation 0.00 in - - ()
Sea Level Pressure  
Sea Level Pressure 30.25 in    
Wind  
Wind Speed 7 mph (ENE)    
Max Wind Speed 15 mph    
Max Gust Speed 16 mph    
Visibility 10 miles    
Events      
Averages and records for this station are not official NWS values.
T = Trace of Precipitation, MM = Missing Value Source: NWS Daily Summary

Daily Weather History Graph

Daily Weather History Graph

Search for Another Location

Airport or City:

Trip Planner

Search our weather history database for the weather conditions in past years. The results will help you decide how hot, cold, wet, or windy it might be!

Date:

Astronomy

Feb. 28, 2014 Rise Set
Actual Time 6:48 AM EST 6:07 PM EST
Civil Twilight 6:22 AM EST 6:34 PM EST
Nautical Twilight 5:51 AM EST 7:05 PM EST
Astronomical Twilight 5:21 AM EST 7:35 PM EST
Moon 6:02 AM EST 5:42 PM EST
Length of Visible Light 12h 11m
Length of Day
11h 18m
Waning Crescent, 1% of the Moon is Illuminated
Feb 28
Waning Crescent
Mar 1
New
Mar 8
First Quarter
Mar 16
Full
Mar 23
Last Quarter

Hourly Weather History & Observations

Time (EST) Temp. Windchill Dew Point Humidity Pressure Visibility Wind Dir Wind Speed Gust Speed Precip Events Conditions
12:15 AM 23.2 °F 14.1 °F -0.6 °F 36% 30.06 in 10.0 mi NNW 8.1 mph - N/A   Clear
12:35 AM 21.4 °F 9.1 °F 2.7 °F 44% 30.07 in 10.0 mi North 12.7 mph - N/A   Clear
12:55 AM 20.1 °F 8.8 °F 3.7 °F 49% 30.09 in 10.0 mi NNE 10.4 mph - N/A   Clear
1:15 AM 18.7 °F 7.8 °F 3.9 °F 53% 30.10 in 10.0 mi NNE 9.2 mph - N/A   Clear
1:35 AM 18.0 °F 3.6 °F 4.1 °F 55% 30.11 in 10.0 mi NNE 15.0 mph - N/A   Clear
1:55 AM 16.7 °F 3.2 °F 4.1 °F 58% 30.12 in 10.0 mi NNE 12.7 mph - N/A   Clear
2:15 AM 16.5 °F 3.6 °F 3.7 °F 57% 30.13 in 10.0 mi NNE 11.5 mph - N/A   Clear
2:35 AM 15.8 °F 2.1 °F 3.9 °F 60% 30.13 in 10.0 mi NNE 12.7 mph - N/A   Clear
2:55 AM 15.6 °F 2.5 °F 3.6 °F 59% 30.13 in 10.0 mi NNE 11.5 mph - N/A   Clear
3:15 AM 14.5 °F 0.5 °F 3.6 °F 62% 30.14 in 10.0 mi NNE 12.7 mph - N/A   Clear
3:40 AM 14.0 °F 2.0 °F 3.0 °F 62% 30.15 in 10.0 mi NNE 9.2 mph - N/A   Clear
3:55 AM 14.0 °F 1.2 °F 2.5 °F 60% 30.16 in 10.0 mi NNE 10.4 mph - N/A   Clear
4:15 AM 13.5 °F 1.3 °F 2.1 °F 61% 30.18 in 10.0 mi NNE 9.2 mph - N/A   Clear
4:35 AM 12.7 °F 2.4 °F 1.9 °F 62% 30.19 in 10.0 mi NNE 6.9 mph - N/A   Clear
4:55 AM 12.7 °F 1.4 °F 1.4 °F 61% 30.20 in 10.0 mi North 8.1 mph - N/A   Clear
5:15 AM 12.6 °F 3.4 °F 0.7 °F 59% 30.21 in 10.0 mi North 5.8 mph - N/A   Clear
5:35 AM 12.0 °F 4.1 °F 0.9 °F 61% 30.23 in 10.0 mi NNE 4.6 mph - N/A   Clear
5:55 AM 11.5 °F 0.9 °F 1.9 °F 66% 30.23 in 10.0 mi NNE 6.9 mph - N/A   Clear
6:15 AM 10.8 °F -1.1 °F 1.8 °F 67% 30.24 in 10.0 mi NE 8.1 mph - N/A   Clear
6:35 AM 10.8 °F -1.1 °F 0.5 °F 63% 30.25 in 10.0 mi NE 8.1 mph - N/A   Clear
6:55 AM 10.4 °F -1.5 °F 0.3 °F 64% 30.26 in 10.0 mi NE 8.1 mph - N/A   Clear
7:15 AM 11.1 °F -1.6 °F 0.7 °F 63% 30.26 in 10.0 mi NNE 9.2 mph - N/A   Clear
7:35 AM 11.3 °F 0.7 °F -0.6 °F 59% 30.28 in 10.0 mi NE 6.9 mph - N/A   Clear
7:55 AM 12.2 °F 0.7 °F -0.8 °F 56% 30.29 in 10.0 mi NE 8.1 mph - N/A   Clear
8:20 AM 13.3 °F 3.0 °F -0.9 °F 53% 30.30 in 10.0 mi NNE 6.9 mph - N/A   Clear
8:35 AM 13.8 °F 2.7 °F -1.3 °F 51% 30.31 in 10.0 mi NE 8.1 mph - N/A   Clear
8:55 AM 14.7 °F 4.8 °F -1.1 °F 50% 30.32 in 10.0 mi NE 6.9 mph - N/A   Clear
9:15 AM 15.6 °F 7.0 °F -0.2 °F 50% 30.34 in 10.0 mi NE 5.8 mph - N/A   Clear
9:35 AM 16.5 °F - 1.0 °F 51% 30.32 in 10.0 mi Calm Calm - N/A   Clear
9:55 AM 17.1 °F - 1.4 °F 50% 30.32 in 10.0 mi Calm Calm - N/A   Clear
10:15 AM 17.8 °F 10.9 °F 1.9 °F 50% 30.33 in 10.0 mi East 4.6 mph - N/A   Clear
10:35 AM 18.3 °F - 2.3 °F 50% 30.34 in 10.0 mi Calm Calm - N/A   Clear
10:55 AM 19.0 °F 13.9 °F 1.9 °F 47% 30.33 in 10.0 mi ESE 3.5 mph - N/A   Clear
11:15 AM 20.7 °F 15.8 °F 3.0 °F 47% 30.33 in 10.0 mi South 3.5 mph - N/A   Clear
11:35 AM 21.7 °F 15.5 °F 3.4 °F 45% 30.32 in 10.0 mi South 4.6 mph - N/A   Clear
11:55 AM 22.6 °F - 3.6 °F 44% 30.32 in 10.0 mi Calm Calm - N/A   Clear
12:15 PM 23.2 °F 17.2 °F 3.7 °F 43% 30.31 in 10.0 mi West 4.6 mph - N/A   Clear
12:35 PM 24.3 °F - 4.1 °F 42% 30.30 in 10.0 mi Calm Calm - N/A   Clear
12:55 PM 26.1 °F - 4.6 °F 40% 30.29 in 10.0 mi Calm Calm - N/A   Clear
1:15 PM 26.8 °F 20.2 °F 5.0 °F 40% 30.27 in 10.0 mi SW 5.8 mph - N/A   Clear
1:35 PM 27.9 °F - 5.0 °F 38% 30.27 in 10.0 mi Calm Calm - N/A   Clear
1:55 PM 29.3 °F 23.2 °F 4.1 °F 34% 30.26 in 10.0 mi SSW 5.8 mph - N/A   Clear
2:15 PM 30.4 °F 24.5 °F 4.1 °F 33% 30.25 in 10.0 mi SSE 5.8 mph - N/A   Clear
2:35 PM 29.7 °F 22.8 °F 3.6 °F 33% 30.25 in 10.0 mi SSW 6.9 mph - N/A   Clear
2:55 PM 30.7 °F - 3.9 °F 32% 30.25 in 10.0 mi Calm Calm - N/A   Clear
3:15 PM 31.5 °F 26.8 °F 3.9 °F 31% 30.25 in 10.0 mi South 4.6 mph 16.1 mph N/A   Clear
3:35 PM 31.6 °F 25.1 °F 3.7 °F 31% 30.25 in 10.0 mi SSE 6.9 mph - N/A   Clear
3:55 PM 31.6 °F 26.0 °F 3.4 °F 30% 30.25 in 10.0 mi SSE 5.8 mph - N/A   Clear
4:15 PM 32.2 °F 25.8 °F 4.5 °F 31% 30.25 in 10.0 mi SSE 6.9 mph - N/A   Clear
4:35 PM 32.0 °F 25.6 °F 3.6 °F 30% 30.25 in 10.0 mi South 6.9 mph - N/A   Clear
4:55 PM 31.3 °F 24.7 °F 3.4 °F 31% 30.25 in 10.0 mi SSE 6.9 mph - N/A   Clear
5:15 PM 30.7 °F 24.9 °F 3.0 °F 31% 30.25 in 10.0 mi SSE 5.8 mph - N/A   Clear
5:35 PM 30.2 °F 24.3 °F 3.2 °F 32% 30.26 in 10.0 mi South 5.8 mph - N/A   Clear
5:55 PM 29.3 °F - 3.9 °F 34% 30.26 in 10.0 mi Calm Calm - N/A   Clear
6:15 PM 27.9 °F 24.0 °F 3.0 °F 35% 30.26 in 10.0 mi ESE 3.5 mph - N/A   Clear
6:35 PM 27.3 °F 23.4 °F 2.8 °F 35% 30.26 in 10.0 mi ESE 3.5 mph - N/A   Clear
6:55 PM 26.6 °F - 3.6 °F 37% 30.26 in 10.0 mi Calm Calm - N/A   Clear
7:15 PM 26.6 °F - 3.6 °F 37% 30.26 in 10.0 mi Calm Calm - N/A   Clear
7:35 PM 25.2 °F - 4.6 °F 42% 30.26 in 10.0 mi Calm Calm - N/A   Clear
7:55 PM 24.8 °F - 5.4 °F 44% 30.26 in 10.0 mi Calm Calm - N/A   Clear
8:15 PM 23.7 °F - 6.1 °F 47% 30.26 in 10.0 mi Calm Calm - N/A   Clear
8:35 PM 23.4 °F - 7.3 °F 50% 30.25 in 10.0 mi Calm Calm - N/A   Clear
8:55 PM 24.3 °F - 5.7 °F 45% 30.26 in 10.0 mi Calm Calm - N/A   Clear
9:15 PM 22.1 °F - 7.7 °F 54% 30.26 in 10.0 mi Calm Calm - N/A   Clear
9:35 PM 22.1 °F - 8.2 °F 55% 30.27 in 10.0 mi Calm Calm - N/A   Clear
9:55 PM 23.7 °F - 6.8 °F 49% 30.27 in 10.0 mi Calm Calm - N/A   Clear
10:15 PM 22.8 °F - 7.0 °F 51% 30.28 in 10.0 mi Calm Calm - N/A   Clear
10:35 PM 23.9 °F - 5.2 °F 45% 30.29 in 10.0 mi Calm Calm - N/A   Clear
10:55 PM 23.7 °F - 5.2 °F 45% 30.29 in 10.0 mi Calm Calm - N/A   Clear
11:15 PM 22.8 °F - 5.9 °F 48% 30.29 in 10.0 mi Calm Calm - N/A   Clear
11:35 PM 21.7 °F - 7.3 °F 54% 30.29 in 10.0 mi Calm Calm - N/A   Clear
11:55 PM 21.9 °F - 7.7 °F 54% 30.28 in 10.0 mi Calm Calm - N/A   Clear